Location: ?????
(55.8833°N, 37.6500°E)
Time: 16:23:27
(UTC+00:00)

ARIANE 5 R/B - Pass Details

Date: 27 February 2020
Orbit: 748 x 795 km, 98.6° (Epoch: 29 March)

Event Time Altitude Azimuth Distance (km) Brightness Sun altitude
Rises 23:46:31 0° 20° (NNE) 3,212 6.6 -36.4°
Reaches altitude 10° 23:48:58 10° 28° (NNE) 2,284 5.7 -36.2°
Enters shadow 23:51:45 29° 51° (NE) 1,379 4.2 -36.0°
